This is the latest recevied weather packets stored in our database for station/object WA1NHP. If no packets are shown the sender has not sent any weather packets the latest 10 day(s).
| Time | Temp. | Humidity | Pressure | Rain* | Wind** | Luminosity | Snow |
|---|---|---|---|---|---|---|---|
| 1777767844 | 7.22° C | 59% | 1023.9 hPa | 0 mm | - | 0 W/m² | - |
| 1777767244 | 7.78° C | 60% | 1023.9 hPa | 0 mm | - | 0 W/m² | - |
| 1777766644 | 7.78° C | 60% | 1023.9 hPa | 0 mm | - | 0 W/m² | - |
| 1777766044 | 8.33° C | 56% | 1023.9 hPa | 0 mm | - | 0 W/m² | - |
| 1777765444 | 8.89° C | 58% | 1023.9 hPa | 0 mm | - | 5 W/m² | - |
| 1777764844 | 8.89° C | 59% | 1023.9 hPa | 0 mm | - | 12 W/m² | - |
| 1777764243 | 9.44° C | 56% | 1023.9 hPa | 0 mm | - | 18 W/m² | - |
| 1777763644 | 9.44° C | 60% | 1023.9 hPa | 0 mm | - | 21 W/m² | - |
| 1777763044 | 9.44° C | 55% | 1023.9 hPa | 0 mm | - | 25 W/m² | - |
| 1777762443 | 10° C | 57% | 1023.9 hPa | 0 mm | - | 32 W/m² | - |
| 1777761843 | 10° C | 58% | 1023.9 hPa | 0 mm | - | 37 W/m² | - |
| 1777761244 | 10.56° C | 58% | 1023.9 hPa | 0 mm | - | 51 W/m² | - |
| 1777760644 | 10.56° C | 60% | 1023.9 hPa | 0 mm | - | 81 W/m² | - |
| 1777760044 | 10.56° C | 59% | 1023.9 hPa | 0 mm | - | 77 W/m² | - |
| 1777759444 | 10.56° C | 60% | 1023.9 hPa | 0 mm | - | 77 W/m² | - |
| 1777758843 | 11.11° C | 60% | 1023.9 hPa | 0 mm | - | 90 W/m² | - |
| 1777758244 | 11.11° C | 59% | 1023.9 hPa | 0 mm | - | 132 W/m² | - |
| 1777757644 | 11.11° C | 59% | 1023.9 hPa | 0 mm | - | 134 W/m² | - |
| 1777757043 | 11.11° C | 58% | 1023.9 hPa | 0 mm | - | 149 W/m² | - |
| 1777756444 | 11.11° C | 62% | 1023.9 hPa | 0 mm | - | 179 W/m² | - |
| 1777755843 | 11.11° C | 64% | 1023.9 hPa | 0 mm | - | 167 W/m² | - |
| 1777755243 | 12.22° C | 61% | 1023.9 hPa | 0 mm | - | 183 W/m² | - |
| 1777754644 | 12.22° C | 64% | 1023.9 hPa | 0 mm | - | 343 W/m² | - |
| 1777754043 | 11.67° C | 66% | 1023.9 hPa | 0 mm | - | 251 W/m² | - |
| 1777753444 | 11.67° C | 66% | 1023.9 hPa | 0 mm | - | 179 W/m² | - |
* Rain latest hour (hover to see other rain measurements)
** Current wind speed in m/s (hover to see current wind gust speed)